date,time,SUV Intensity [MED/Hr],UV Index,Daily total [MED],Since Last [MED]
14/06/2022,00:10:14,-0.000,0.0,0.0,0.0
14/06/2022,00:12:14,0.000,0.0,0.0,0.0
14/06/2022,00:14:14,0.000,0.0,0.0,0.0
14/06/2022,00:16:14,0.000,0.0,0.0,0.0
14/06/2022,00:18:15,0.000,0.0,0.0,0.0
14/06/2022,00:20:14,0.000,0.0,0.0,0.0
14/06/2022,00:22:14,0.000,0.0,0.0,0.0
14/06/2022,00:24:23,0.000,0.0,0.0,0.0
14/06/2022,00:26:13,0.000,0.0,0.0,0.0
14/06/2022,00:28:14,-0.001,0.0,0.0,0.0
14/06/2022,00:30:14,0.001,0.0,0.0,0.0
14/06/2022,00:32:14,0.000,0.0,0.0,0.0
14/06/2022,00:34:30,0.001,0.0,0.0,0.0
14/06/2022,00:36:13,0.000,0.0,0.0,0.0
14/06/2022,00:38:13,-0.000,0.0,0.0,0.0
14/06/2022,00:40:14,0.000,0.0,0.0,0.0
14/06/2022,00:42:22,0.000,0.0,0.0,0.0
14/06/2022,00:44:14,0.000,0.0,0.0,0.0
14/06/2022,00:46:14,0.000,0.0,0.0,0.0
14/06/2022,00:48:17,0.001,0.0,0.0,0.0
14/06/2022,00:50:14,0.001,0.0,0.0,0.0
14/06/2022,00:52:21,0.001,0.0,0.0,0.0
14/06/2022,00:54:14,0.002,0.0,0.0,0.0
14/06/2022,00:56:14,0.001,0.0,0.0,0.0
14/06/2022,00:58:14,0.001,0.0,0.0,0.0
14/06/2022,01:00:14,0.000,0.0,0.0,0.0
14/06/2022,01:02:14,0.001,0.0,0.0,0.0
14/06/2022,01:04:14,0.001,0.0,0.0,0.0
14/06/2022,01:06:14,0.001,0.0,0.0,0.0
14/06/2022,01:08:14,0.001,0.0,0.0,0.0
14/06/2022,01:10:14,0.001,0.0,0.0,0.0
14/06/2022,01:12:14,-0.000,0.0,0.0,0.0
14/06/2022,01:14:14,0.002,0.0,0.0,0.0
14/06/2022,01:16:15,0.000,0.0,0.0,0.0
14/06/2022,01:18:14,0.001,0.0,0.0,0.0
14/06/2022,01:20:13,0.001,0.0,0.0,0.0
14/06/2022,01:22:14,0.001,0.0,0.0,0.0
14/06/2022,01:24:14,0.000,0.0,0.0,0.0
14/06/2022,01:26:14,0.001,0.0,0.0,0.0
14/06/2022,01:28:13,0.002,0.0,0.0,0.0
14/06/2022,01:30:14,0.001,0.0,0.0,0.0
14/06/2022,01:32:22,0.001,0.0,0.0,0.0
14/06/2022,01:34:13,0.001,0.0,0.0,0.0
14/06/2022,01:36:14,0.001,0.0,0.0,0.0
14/06/2022,01:38:14,0.001,0.0,0.0,0.0
14/06/2022,01:40:13,0.001,0.0,0.0,0.0
14/06/2022,01:42:14,0.001,0.0,0.0,0.0
14/06/2022,01:44:14,0.001,0.0,0.0,0.0
14/06/2022,01:46:14,0.002,0.0,0.0,0.0
14/06/2022,01:48:14,0.001,0.0,0.0,0.0
14/06/2022,01:50:14,0.001,0.0,0.0,0.0
14/06/2022,01:52:13,0.001,0.0,0.0,0.0
14/06/2022,01:54:14,0.001,0.0,0.0,0.0
14/06/2022,01:56:14,0.001,0.0,0.0,0.0
14/06/2022,01:58:13,0.001,0.0,0.0,0.0
14/06/2022,02:00:14,0.002,0.0,0.0,0.0
14/06/2022,02:02:14,0.001,0.0,0.0,0.0
14/06/2022,02:04:14,0.001,0.0,0.0,0.0
14/06/2022,02:06:14,0.001,0.0,0.0,0.0
14/06/2022,02:08:14,0.001,0.0,0.0,0.0
14/06/2022,02:10:22,0.002,0.0,0.0,0.0
14/06/2022,02:12:14,0.001,0.0,0.0,0.0
14/06/2022,02:14:13,0.001,0.0,0.0,0.0
14/06/2022,02:16:13,0.002,0.0,0.0,0.0
14/06/2022,02:18:13,0.001,0.0,0.0,0.0
14/06/2022,02:20:13,0.001,0.0,0.0,0.0
14/06/2022,02:22:14,0.002,0.0,0.0,0.0
14/06/2022,02:24:13,0.001,0.0,0.0,0.0
14/06/2022,02:26:27,0.001,0.0,0.0,0.0
14/06/2022,02:28:13,0.001,0.0,0.0,0.0
14/06/2022,02:30:14,0.001,0.0,0.0,0.0
14/06/2022,02:32:14,0.001,0.0,0.0,0.0
14/06/2022,02:34:14,0.002,0.0,0.0,0.0
14/06/2022,02:36:23,0.001,0.0,0.0,0.0
14/06/2022,02:38:13,0.001,0.0,0.0,0.0
14/06/2022,02:40:14,0.001,0.0,0.0,0.0
14/06/2022,02:42:14,0.001,0.0,0.0,0.0
14/06/2022,02:44:13,0.001,0.0,0.0,0.0
14/06/2022,02:46:14,0.001,0.0,0.0,0.0
14/06/2022,02:48:13,0.001,0.0,0.0,0.0
14/06/2022,02:50:14,0.002,0.0,0.0,0.0
14/06/2022,02:52:14,0.002,0.0,0.0,0.0
14/06/2022,02:54:22,0.001,0.0,0.0,0.0
14/06/2022,02:56:14,0.002,0.0,0.0,0.0
14/06/2022,02:58:14,0.003,0.0,0.0,0.0
14/06/2022,03:00:15,0.002,0.0,0.0,0.0
14/06/2022,03:02:14,0.001,0.0,0.0,0.0
14/06/2022,03:04:22,0.001,0.0,0.0,0.0
14/06/2022,03:06:14,0.001,0.0,0.0,0.0
14/06/2022,03:08:14,0.002,0.0,0.0,0.0
14/06/2022,03:10:14,0.002,0.0,0.0,0.0
14/06/2022,03:12:14,0.002,0.0,0.0,0.0
14/06/2022,03:14:22,0.001,0.0,0.0,0.0
14/06/2022,03:16:13,0.002,0.0,0.0,0.0
14/06/2022,03:18:14,0.003,0.0,0.0,0.0
14/06/2022,03:20:14,0.001,0.0,0.0,0.0
14/06/2022,03:22:14,0.002,0.0,0.0,0.0
14/06/2022,03:24:14,0.002,0.0,0.0,0.0
14/06/2022,03:26:13,0.001,0.0,0.0,0.0
14/06/2022,03:28:14,0.003,0.0,0.0,0.0
14/06/2022,03:30:14,0.002,0.0,0.0,0.0
14/06/2022,03:32:14,0.003,0.0,0.0,0.0
14/06/2022,03:34:14,0.002,0.0,0.0,0.0
14/06/2022,03:36:14,0.002,0.0,0.0,0.0
14/06/2022,03:38:14,0.001,0.0,0.0,0.0
14/06/2022,03:40:14,0.002,0.0,0.0,0.0
14/06/2022,03:42:14,0.003,0.0,0.0,0.0
14/06/2022,03:44:14,0.003,0.0,0.0,0.0
14/06/2022,03:46:14,0.003,0.0,0.0,0.0
14/06/2022,03:48:13,0.002,0.0,0.0,0.0
14/06/2022,03:50:14,0.003,0.0,0.0,0.0
14/06/2022,03:52:22,0.004,0.0,0.0,0.0
14/06/2022,03:54:14,0.004,0.0,0.0,0.0
14/06/2022,03:56:14,0.003,0.0,0.0,0.0
14/06/2022,03:58:14,0.004,0.0,0.0,0.0
14/06/2022,04:00:14,0.004,0.0,0.0,0.0
14/06/2022,04:02:23,0.005,0.0,0.0,0.0
14/06/2022,04:04:15,0.005,0.0,0.0,0.0
14/06/2022,04:06:14,0.006,0.0,0.0,0.0
14/06/2022,04:08:14,0.005,0.0,0.0,0.0
14/06/2022,04:10:14,0.007,0.0,0.0,0.0
14/06/2022,04:12:14,0.007,0.0,0.001,0.001
14/06/2022,04:14:22,0.007,0.0,0.001,0.0
14/06/2022,04:16:14,0.007,0.0,0.001,0.0
14/06/2022,04:18:31,0.009,0.0,0.001,0.0
14/06/2022,04:20:13,0.010,0.0,0.002,0.001
14/06/2022,04:22:14,0.009,0.0,0.002,0.0
14/06/2022,04:24:14,0.011,0.0,0.002,0.0
14/06/2022,04:26:14,0.011,0.0,0.003,0.001
14/06/2022,04:28:14,0.012,0.0,0.003,0.0
14/06/2022,04:30:22,0.012,0.0,0.003,0.0
14/06/2022,04:32:14,0.014,0.0,0.004,0.001
14/06/2022,04:34:14,0.015,0.0,0.004,0.0
14/06/2022,04:36:14,0.016,0.0,0.005,0.001
14/06/2022,04:38:14,0.017,0.0,0.005,0.0
14/06/2022,04:40:23,0.018,0.0,0.006,0.001
14/06/2022,04:42:14,0.019,0.0,0.007,0.001
14/06/2022,04:44:14,0.020,0.0,0.007,0.0
14/06/2022,04:46:14,0.022,0.0,0.008,0.001
14/06/2022,04:48:14,0.023,0.0,0.009,0.001
14/06/2022,04:50:14,0.024,0.0,0.009,0.0
14/06/2022,04:52:14,0.025,0.0,0.01,0.001
14/06/2022,04:54:14,0.027,0.0,0.011,0.001
14/06/2022,04:56:14,0.028,0.0,0.012,0.001
14/06/2022,04:58:14,0.030,0.0,0.013,0.001
14/06/2022,05:00:14,0.031,0.0,0.014,0.001
14/06/2022,05:02:14,0.032,0.0,0.015,0.001
14/06/2022,05:04:14,0.035,0.0,0.016,0.001
14/06/2022,05:06:14,0.036,0.0,0.017,0.001
14/06/2022,05:08:14,0.039,0.0,0.019,0.002
14/06/2022,05:10:14,0.041,0.0,0.02,0.001
14/06/2022,05:12:23,0.042,0.0,0.021,0.001
14/06/2022,05:14:14,0.045,0.0,0.023,0.002
14/06/2022,05:16:15,0.047,0.0,0.024,0.001
14/06/2022,05:18:15,0.049,0.0,0.026,0.002
14/06/2022,05:20:14,0.052,0.0,0.028,0.002
14/06/2022,05:22:22,0.055,0.0,0.03,0.002
14/06/2022,05:24:14,0.057,0.0,0.031,0.001
14/06/2022,05:26:14,0.059,0.0,0.033,0.002
14/06/2022,05:28:14,0.063,0.0,0.035,0.002
14/06/2022,05:30:14,0.066,0.0,0.037,0.002
14/06/2022,05:32:14,0.069,0.0,0.04,0.003
14/06/2022,05:34:14,0.072,0.0,0.042,0.002
14/06/2022,05:36:14,0.076,0.0,0.044,0.002
14/06/2022,05:38:14,0.079,0.0,0.047,0.003
14/06/2022,05:40:14,0.082,0.0,0.05,0.003
14/06/2022,05:42:14,0.086,0.0,0.052,0.002
14/06/2022,05:44:14,0.090,0.0,0.055,0.003
14/06/2022,05:46:14,0.093,0.0,0.058,0.003
14/06/2022,05:48:14,0.098,0.0,0.062,0.004
14/06/2022,05:50:14,0.101,0.0,0.065,0.003
14/06/2022,05:52:14,0.107,0.0,0.068,0.003
14/06/2022,05:54:15,0.112,0.0,0.072,0.004
14/06/2022,05:56:14,0.115,0.0,0.076,0.004
14/06/2022,05:58:14,0.119,0.0,0.08,0.004
14/06/2022,06:00:23,0.125,0.0,0.084,0.004
14/06/2022,06:02:14,0.129,0.0,0.088,0.004
14/06/2022,06:04:14,0.134,0.0,0.092,0.004
14/06/2022,06:06:14,0.139,0.0,0.097,0.005
14/06/2022,06:08:14,0.144,0.0,0.102,0.005
14/06/2022,06:10:22,0.151,0.0,0.107,0.005
14/06/2022,06:12:14,0.157,0.0,0.112,0.005
14/06/2022,06:14:14,0.163,0.0,0.117,0.005
14/06/2022,06:16:14,0.168,0.0,0.123,0.006
14/06/2022,06:18:14,0.174,0.0,0.128,0.005
14/06/2022,06:20:23,0.182,0.0,0.135,0.007
14/06/2022,06:22:14,0.187,0.0,0.14,0.005
14/06/2022,06:24:14,0.194,0.0,0.147,0.007
14/06/2022,06:26:14,0.201,0.0,0.153,0.006
14/06/2022,06:28:47,0.211,0.0,0.162,0.009
14/06/2022,06:31:15,0.220,1.0,0.171,0.009
14/06/2022,06:33:15,0.229,1.0,0.178,0.007
14/06/2022,06:35:14,0.236,1.0,0.186,0.008
14/06/2022,06:37:14,0.244,1.0,0.194,0.008
14/06/2022,06:39:14,0.251,1.0,0.202,0.008
14/06/2022,06:41:14,0.260,1.0,0.211,0.009
14/06/2022,06:43:15,0.269,1.0,0.22,0.009
14/06/2022,06:45:15,0.278,1.0,0.229,0.009
14/06/2022,06:47:14,0.285,1.0,0.238,0.009
14/06/2022,06:49:14,0.294,1.0,0.248,0.01
14/06/2022,06:51:14,0.304,1.0,0.258,0.01
14/06/2022,06:53:14,0.312,1.0,0.268,0.01
14/06/2022,06:55:14,0.322,1.0,0.279,0.011
14/06/2022,06:57:15,0.332,1.0,0.29,0.011
14/06/2022,06:59:14,0.343,1.0,0.301,0.011
14/06/2022,07:01:14,0.352,1.0,0.312,0.011
14/06/2022,07:03:14,0.363,1.0,0.324,0.012
14/06/2022,07:05:15,0.372,1.0,0.336,0.012
14/06/2022,07:07:14,0.383,1.0,0.349,0.013
14/06/2022,07:09:14,0.393,1.0,0.362,0.013
14/06/2022,07:11:14,0.403,1.0,0.375,0.013
14/06/2022,07:13:14,0.415,1.0,0.389,0.014
14/06/2022,07:15:14,0.428,1.0,0.403,0.014
14/06/2022,07:17:16,0.438,1.0,0.418,0.015
14/06/2022,07:19:15,0.448,1.0,0.432,0.014
14/06/2022,07:21:22,0.465,1.0,0.448,0.016
14/06/2022,07:23:14,0.474,1.0,0.463,0.015
14/06/2022,07:25:15,0.487,1.0,0.479,0.016
14/06/2022,07:27:14,0.500,1.0,0.495,0.016
14/06/2022,07:29:15,0.507,1.0,0.512,0.017
14/06/2022,07:31:16,0.512,1.0,0.53,0.018
14/06/2022,07:33:15,0.532,1.0,0.547,0.017
14/06/2022,07:35:15,0.556,1.0,0.565,0.018
14/06/2022,07:37:14,0.539,1.0,0.583,0.018
14/06/2022,07:39:14,0.543,1.0,0.601,0.018
14/06/2022,07:41:14,0.572,1.0,0.619,0.018
14/06/2022,07:43:15,0.557,1.0,0.638,0.019
14/06/2022,07:45:14,0.564,1.0,0.658,0.02
14/06/2022,07:47:14,0.564,1.0,0.677,0.019
14/06/2022,07:49:14,0.596,1.0,0.697,0.02
14/06/2022,07:51:15,0.585,1.0,0.716,0.019
14/06/2022,07:53:14,0.690,2.0,0.737,0.021
14/06/2022,07:55:14,0.685,2.0,0.76,0.023
14/06/2022,07:57:14,0.702,2.0,0.783,0.023
14/06/2022,07:59:14,0.728,2.0,0.807,0.024
14/06/2022,08:01:14,0.726,2.0,0.831,0.024
14/06/2022,08:03:14,0.759,2.0,0.856,0.025
14/06/2022,08:05:14,0.764,2.0,0.881,0.025
14/06/2022,08:07:48,0.795,2.0,0.914,0.033
14/06/2022,08:10:15,0.811,2.0,0.946,0.032
14/06/2022,08:12:14,0.827,2.0,0.974,0.028
14/06/2022,08:14:14,0.841,2.0,1.001,0.027
14/06/2022,08:16:15,0.857,2.0,1.03,0.029
14/06/2022,08:18:23,0.873,2.0,1.06,0.03
14/06/2022,08:20:14,0.889,2.0,1.088,0.028
14/06/2022,08:22:14,0.907,2.0,1.118,0.03
14/06/2022,08:24:14,0.926,2.0,1.148,0.03
14/06/2022,08:26:14,0.942,2.0,1.179,0.031
14/06/2022,08:28:23,0.963,2.0,1.213,0.034
14/06/2022,08:30:14,0.970,2.0,1.243,0.03
14/06/2022,08:32:14,0.992,2.0,1.276,0.033
14/06/2022,08:34:15,1.009,2.0,1.31,0.034
14/06/2022,08:36:14,1.022,2.0,1.343,0.033
14/06/2022,08:38:14,1.037,2.0,1.378,0.035
14/06/2022,08:40:23,1.064,2.0,1.415,0.037
14/06/2022,08:42:14,1.078,2.0,1.448,0.033
14/06/2022,08:44:15,1.092,3.0,1.485,0.037
14/06/2022,08:46:14,1.112,3.0,1.521,0.036
14/06/2022,08:48:15,1.127,3.0,1.559,0.038
14/06/2022,08:50:14,1.147,3.0,1.597,0.038
14/06/2022,08:52:14,1.173,3.0,1.635,0.038
14/06/2022,08:54:15,1.188,3.0,1.675,0.04
14/06/2022,08:56:14,1.204,3.0,1.715,0.04
14/06/2022,08:58:15,1.222,3.0,1.755,0.04
14/06/2022,09:00:15,1.235,3.0,1.796,0.041
14/06/2022,09:02:14,1.246,3.0,1.836,0.04
14/06/2022,09:04:15,0.853,2.0,1.871,0.035
14/06/2022,09:06:15,1.280,3.0,1.913,0.042
14/06/2022,09:08:14,1.318,3.0,1.957,0.044
14/06/2022,09:10:14,1.246,3.0,2.001,0.044
14/06/2022,09:12:22,1.391,3.0,2.043,0.042
14/06/2022,09:14:14,1.375,3.0,2.085,0.042
14/06/2022,09:16:15,0.873,2.0,2.124,0.039
14/06/2022,09:18:14,0.937,2.0,2.156,0.032
14/06/2022,09:20:15,1.380,3.0,2.194,0.038
14/06/2022,09:22:15,1.490,3.0,2.243,0.049
14/06/2022,09:24:23,1.537,4.0,2.296,0.053
14/06/2022,09:26:15,1.541,4.0,2.344,0.048
14/06/2022,09:28:15,1.407,3.0,2.383,0.039
14/06/2022,09:30:14,1.532,4.0,2.424,0.041
14/06/2022,09:32:15,0.915,2.0,2.467,0.043
14/06/2022,09:34:15,0.890,2.0,2.497,0.03
14/06/2022,09:36:23,1.392,3.0,2.532,0.035
14/06/2022,09:38:16,0.996,2.0,2.568,0.036
14/06/2022,09:40:15,0.990,2.0,2.6,0.032
14/06/2022,09:42:15,1.653,4.0,2.645,0.045
14/06/2022,09:44:14,1.192,3.0,2.687,0.042
14/06/2022,09:46:23,1.126,3.0,2.731,0.044
14/06/2022,09:48:14,1.355,3.0,2.767,0.036
14/06/2022,09:50:15,0.972,2.0,2.802,0.035
14/06/2022,09:52:15,0.967,2.0,2.834,0.032
14/06/2022,09:54:14,1.111,3.0,2.871,0.037
14/06/2022,09:56:15,1.670,4.0,2.917,0.046
14/06/2022,09:58:23,1.830,4.0,2.98,0.063
14/06/2022,10:00:14,1.862,4.0,3.038,0.058
14/06/2022,10:02:15,1.767,4.0,3.1,0.062
14/06/2022,10:04:15,1.929,4.0,3.163,0.063
14/06/2022,10:06:15,1.946,4.0,3.227,0.064
14/06/2022,10:08:14,1.122,3.0,3.281,0.054
14/06/2022,10:10:15,1.158,3.0,3.319,0.038
14/06/2022,10:12:15,1.292,3.0,3.371,0.052
14/06/2022,10:14:14,1.977,5.0,3.427,0.056
14/06/2022,10:16:23,1.903,4.0,3.498,0.071
14/06/2022,10:18:17,2.013,5.0,3.559,0.061
14/06/2022,10:20:14,2.050,5.0,3.626,0.067
14/06/2022,10:22:15,2.070,5.0,3.696,0.07
14/06/2022,10:24:15,2.106,5.0,3.764,0.068
14/06/2022,10:26:23,2.054,5.0,3.823,0.059
14/06/2022,10:28:15,2.101,5.0,3.886,0.063
14/06/2022,10:30:15,1.248,3.0,3.95,0.064
14/06/2022,10:32:15,1.737,4.0,3.992,0.042
14/06/2022,10:34:15,2.073,5.0,4.059,0.067
14/06/2022,10:36:14,2.128,5.0,4.128,0.069
14/06/2022,10:38:15,2.170,5.0,4.192,0.064
14/06/2022,10:40:15,2.181,5.0,4.264,0.072
14/06/2022,10:42:14,2.199,5.0,4.337,0.073
14/06/2022,10:44:23,2.225,5.0,4.416,0.079
14/06/2022,10:46:14,2.219,5.0,4.484,0.068
14/06/2022,10:48:14,2.227,5.0,4.559,0.075
14/06/2022,10:50:14,2.272,5.0,4.633,0.074
14/06/2022,10:52:15,2.288,5.0,4.71,0.077
14/06/2022,10:54:23,2.307,5.0,4.792,0.082
14/06/2022,10:56:14,2.291,5.0,4.862,0.07
14/06/2022,10:58:14,2.327,5.0,4.939,0.077
14/06/2022,11:00:15,2.347,5.0,5.017,0.078
14/06/2022,11:02:14,2.358,5.0,5.096,0.079
14/06/2022,11:04:15,2.370,5.0,5.175,0.079
14/06/2022,11:06:23,2.378,5.0,5.259,0.084
14/06/2022,11:08:15,2.398,6.0,5.333,0.074
14/06/2022,11:10:23,2.436,6.0,5.419,0.086
14/06/2022,11:12:23,2.469,6.0,5.5,0.081
14/06/2022,11:14:15,2.469,6.0,5.577,0.077
14/06/2022,11:16:14,2.476,6.0,5.659,0.082
14/06/2022,11:18:15,2.464,6.0,5.741,0.082
14/06/2022,11:20:15,2.462,6.0,5.824,0.083
14/06/2022,11:22:15,2.451,6.0,5.905,0.081
14/06/2022,11:24:23,2.469,6.0,5.993,0.088
14/06/2022,11:26:14,2.478,6.0,6.07,0.077
14/06/2022,11:28:22,2.481,6.0,6.158,0.088
14/06/2022,11:30:14,2.493,6.0,6.235,0.077
14/06/2022,11:32:15,2.488,6.0,6.318,0.083
14/06/2022,11:34:15,2.448,6.0,6.4,0.082
14/06/2022,11:36:15,2.432,6.0,6.482,0.082
14/06/2022,11:38:14,2.480,6.0,6.564,0.082
14/06/2022,11:40:15,2.513,6.0,6.648,0.084
14/06/2022,11:42:15,2.490,6.0,6.731,0.083
14/06/2022,11:44:15,2.475,6.0,6.813,0.082
14/06/2022,11:46:15,2.488,6.0,6.896,0.083
14/06/2022,11:48:15,2.506,6.0,6.979,0.083
14/06/2022,11:50:15,2.499,6.0,7.063,0.084
14/06/2022,11:52:14,2.504,6.0,7.146,0.083
14/06/2022,11:54:16,2.525,6.0,7.232,0.086
14/06/2022,11:56:15,2.524,6.0,7.314,0.082
14/06/2022,11:58:15,2.522,6.0,7.398,0.084
14/06/2022,12:00:15,2.512,6.0,7.482,0.084
14/06/2022,12:02:14,2.509,6.0,7.566,0.084
14/06/2022,12:04:23,2.507,6.0,7.657,0.091
14/06/2022,12:06:14,2.509,6.0,7.733,0.076
14/06/2022,12:08:14,2.524,6.0,7.817,0.084
14/06/2022,12:10:15,2.509,6.0,7.901,0.084
14/06/2022,12:12:15,2.534,6.0,7.984,0.083
14/06/2022,12:14:15,2.564,6.0,8.069,0.085
14/06/2022,12:16:15,2.530,6.0,8.154,0.085
14/06/2022,12:18:15,2.538,6.0,8.238,0.084
14/06/2022,12:20:14,2.523,6.0,8.323,0.085
14/06/2022,12:22:23,2.505,6.0,8.412,0.089
14/06/2022,12:24:15,2.517,6.0,8.49,0.078
14/06/2022,12:26:15,2.518,6.0,8.575,0.085
14/06/2022,12:28:15,2.522,6.0,8.659,0.084
14/06/2022,12:30:14,2.542,6.0,8.743,0.084
14/06/2022,12:32:15,2.513,6.0,8.829,0.086
14/06/2022,12:34:23,2.523,6.0,8.917,0.088
14/06/2022,12:36:15,2.509,6.0,8.995,0.078
14/06/2022,12:38:14,2.504,6.0,9.079,0.084
14/06/2022,12:40:15,2.506,6.0,9.164,0.085
14/06/2022,12:42:15,2.506,6.0,9.246,0.082
14/06/2022,12:44:15,2.501,6.0,9.33,0.084
14/06/2022,12:46:14,2.502,6.0,9.412,0.082
14/06/2022,12:48:15,2.489,6.0,9.497,0.085
14/06/2022,12:50:15,2.471,6.0,9.578,0.081
14/06/2022,12:52:23,2.447,6.0,9.666,0.088
14/06/2022,12:54:15,2.379,5.0,9.741,0.075
14/06/2022,12:56:15,2.393,6.0,9.811,0.07
14/06/2022,12:58:14,2.429,6.0,9.891,0.08
14/06/2022,13:00:16,2.448,6.0,9.974,0.083
14/06/2022,13:02:15,2.425,6.0,10.055,0.081
14/06/2022,13:04:23,2.440,6.0,10.14,0.085
14/06/2022,13:06:15,2.426,6.0,10.216,0.076
14/06/2022,13:08:15,2.399,6.0,10.296,0.08
14/06/2022,13:10:15,2.392,6.0,10.378,0.082
14/06/2022,13:12:15,2.364,5.0,10.457,0.079
14/06/2022,13:14:15,2.357,5.0,10.534,0.077
14/06/2022,13:16:15,2.349,5.0,10.613,0.079
14/06/2022,13:18:15,2.345,5.0,10.691,0.078
14/06/2022,13:20:15,2.339,5.0,10.769,0.078
14/06/2022,13:22:23,2.315,5.0,10.853,0.084
14/06/2022,13:24:15,2.327,5.0,10.924,0.071
14/06/2022,13:26:15,2.326,5.0,11.001,0.077
14/06/2022,13:28:15,2.294,5.0,11.079,0.078
14/06/2022,13:30:14,2.314,5.0,11.155,0.076
14/06/2022,13:32:15,2.288,5.0,11.232,0.077
14/06/2022,13:34:15,2.280,5.0,11.309,0.077
14/06/2022,13:36:15,2.258,5.0,11.384,0.075
14/06/2022,13:38:15,2.234,5.0,11.46,0.076
14/06/2022,13:40:15,2.231,5.0,11.533,0.073
14/06/2022,13:42:23,2.154,5.0,11.612,0.079
14/06/2022,13:44:15,2.196,5.0,11.678,0.066
14/06/2022,13:46:15,2.149,5.0,11.751,0.073
14/06/2022,13:48:15,2.189,5.0,11.824,0.073
14/06/2022,13:50:15,2.169,5.0,11.895,0.071
14/06/2022,13:52:15,2.147,5.0,11.969,0.074
14/06/2022,13:54:05,2.141,5.0,12.033,0.064
14/06/2022,13:56:16,2.090,5.0,12.111,0.078
14/06/2022,13:58:15,2.125,5.0,12.181,0.07
14/06/2022,14:00:15,2.090,5.0,12.25,0.069
14/06/2022,14:02:15,2.053,5.0,12.319,0.069
14/06/2022,14:04:15,2.074,5.0,12.388,0.069
14/06/2022,14:06:15,2.068,5.0,12.457,0.069
14/06/2022,14:08:15,1.167,3.0,12.511,0.054
14/06/2022,14:10:14,1.107,3.0,12.549,0.038
14/06/2022,14:12:15,1.940,4.0,12.603,0.054
14/06/2022,14:14:40,1.665,4.0,12.674,0.071
14/06/2022,14:16:20,1.955,4.0,12.724,0.05
14/06/2022,14:18:15,1.911,4.0,12.785,0.061
14/06/2022,14:20:24,1.929,4.0,12.852,0.067
14/06/2022,14:22:15,1.925,4.0,12.91,0.058
14/06/2022,14:24:15,1.911,4.0,12.974,0.064
14/06/2022,14:26:15,1.899,4.0,13.039,0.065
14/06/2022,14:28:15,1.886,4.0,13.101,0.062
14/06/2022,14:30:15,1.868,4.0,13.163,0.062
14/06/2022,14:32:15,1.839,4.0,13.225,0.062
14/06/2022,14:34:15,1.825,4.0,13.286,0.061
14/06/2022,14:36:16,1.815,4.0,13.348,0.062
14/06/2022,14:38:15,1.710,4.0,13.407,0.059
14/06/2022,14:40:23,1.673,4.0,13.467,0.06
14/06/2022,14:42:15,1.725,4.0,13.519,0.052
14/06/2022,14:44:15,1.709,4.0,13.576,0.057
14/06/2022,14:46:15,1.730,4.0,13.633,0.057
14/06/2022,14:48:15,1.711,4.0,13.691,0.058
14/06/2022,14:50:15,1.687,4.0,13.747,0.056
14/06/2022,14:52:15,1.638,4.0,13.803,0.056
14/06/2022,14:54:15,1.637,4.0,13.858,0.055
14/06/2022,14:56:15,1.620,4.0,13.912,0.054
14/06/2022,14:58:15,1.615,4.0,13.966,0.054
14/06/2022,15:00:23,1.604,4.0,14.024,0.058
14/06/2022,15:02:14,1.590,4.0,14.073,0.049
14/06/2022,15:04:16,1.570,4.0,14.126,0.053
14/06/2022,15:06:15,1.530,4.0,14.177,0.051
14/06/2022,15:08:15,1.514,3.0,14.228,0.051
14/06/2022,15:10:15,1.503,3.0,14.278,0.05
14/06/2022,15:12:15,1.467,3.0,14.328,0.05
14/06/2022,15:14:15,1.444,3.0,14.376,0.048
14/06/2022,15:16:15,1.411,3.0,14.424,0.048
14/06/2022,15:18:15,1.390,3.0,14.47,0.046
14/06/2022,15:20:24,1.385,3.0,14.52,0.05
14/06/2022,15:22:15,1.381,3.0,14.563,0.043
14/06/2022,15:24:15,1.368,3.0,14.609,0.046
14/06/2022,15:26:15,1.338,3.0,14.654,0.045
14/06/2022,15:28:15,1.303,3.0,14.697,0.043
14/06/2022,15:30:15,1.250,3.0,14.74,0.043
14/06/2022,15:32:15,1.253,3.0,14.781,0.041
14/06/2022,15:34:15,1.239,3.0,14.823,0.042
14/06/2022,15:36:15,1.226,3.0,14.864,0.041
14/06/2022,15:38:15,1.217,3.0,14.905,0.041
14/06/2022,15:40:15,1.207,3.0,14.945,0.04
14/06/2022,15:42:15,1.162,3.0,14.985,0.04
14/06/2022,15:44:15,1.166,3.0,15.024,0.039
14/06/2022,15:46:24,1.151,3.0,15.065,0.041
14/06/2022,15:48:15,1.129,3.0,15.1,0.035
14/06/2022,15:50:15,1.110,3.0,15.138,0.038
14/06/2022,15:52:15,1.093,3.0,15.174,0.036
14/06/2022,15:54:15,1.068,2.0,15.211,0.037
14/06/2022,15:56:15,1.051,2.0,15.246,0.035
14/06/2022,15:58:15,1.027,2.0,15.28,0.034
14/06/2022,16:00:16,1.013,2.0,15.315,0.035
14/06/2022,16:02:15,0.993,2.0,15.348,0.033
14/06/2022,16:04:15,0.968,2.0,15.38,0.032
14/06/2022,16:06:15,0.945,2.0,15.412,0.032
14/06/2022,16:08:15,0.938,2.0,15.443,0.031
14/06/2022,16:10:15,0.915,2.0,15.475,0.032
14/06/2022,16:12:15,0.906,2.0,15.505,0.03
14/06/2022,16:14:23,0.881,2.0,15.537,0.032
14/06/2022,16:16:15,0.861,2.0,15.563,0.026
14/06/2022,16:18:16,0.843,2.0,15.592,0.029
14/06/2022,16:20:16,0.834,2.0,15.62,0.028
14/06/2022,16:22:15,0.818,2.0,15.647,0.027
14/06/2022,16:24:15,0.801,2.0,15.674,0.027
14/06/2022,16:26:15,0.782,2.0,15.701,0.027
14/06/2022,16:28:15,0.766,2.0,15.727,0.026
14/06/2022,16:30:15,0.741,2.0,15.752,0.025
14/06/2022,16:32:16,0.706,2.0,15.776,0.024
14/06/2022,16:34:23,0.717,2.0,15.801,0.025
14/06/2022,16:36:16,0.707,2.0,15.823,0.022
14/06/2022,16:38:15,0.691,2.0,15.846,0.023
14/06/2022,16:40:15,0.676,2.0,15.869,0.023
14/06/2022,16:42:15,0.659,2.0,15.891,0.022
14/06/2022,16:44:15,0.647,1.0,15.913,0.022
14/06/2022,16:46:15,0.632,1.0,15.935,0.022
14/06/2022,16:48:15,0.615,1.0,15.955,0.02
14/06/2022,16:50:16,0.600,1.0,15.976,0.021
14/06/2022,16:52:15,0.584,1.0,15.996,0.02
14/06/2022,16:54:23,0.567,1.0,16.016,0.02
14/06/2022,16:56:15,0.555,1.0,16.033,0.017
14/06/2022,16:58:15,0.540,1.0,16.052,0.019
14/06/2022,17:00:15,0.526,1.0,16.069,0.017
14/06/2022,17:02:24,0.509,1.0,16.088,0.019
14/06/2022,17:04:15,0.495,1.0,16.103,0.015
14/06/2022,17:06:15,0.482,1.0,16.12,0.017
14/06/2022,17:08:15,0.470,1.0,16.135,0.015
14/06/2022,17:10:15,0.460,1.0,16.151,0.016
14/06/2022,17:12:15,0.443,1.0,16.166,0.015
14/06/2022,17:14:15,0.431,1.0,16.181,0.015
14/06/2022,17:16:15,0.419,1.0,16.195,0.014
14/06/2022,17:18:15,0.407,1.0,16.209,0.014
14/06/2022,17:20:16,0.397,1.0,16.222,0.013
14/06/2022,17:22:15,0.385,1.0,16.235,0.013
14/06/2022,17:24:15,0.373,1.0,16.248,0.013
14/06/2022,17:26:15,0.364,1.0,16.26,0.012
14/06/2022,17:28:15,0.353,1.0,16.272,0.012
14/06/2022,17:30:16,0.340,1.0,16.284,0.012
14/06/2022,17:32:15,0.331,1.0,16.295,0.011
14/06/2022,17:34:15,0.320,1.0,16.306,0.011
14/06/2022,17:36:16,0.312,1.0,16.316,0.01
14/06/2022,17:38:16,0.302,1.0,16.326,0.01
14/06/2022,17:40:29,0.291,1.0,16.337,0.011
14/06/2022,17:42:24,0.283,1.0,16.346,0.009
14/06/2022,17:44:16,0.274,1.0,16.355,0.009
14/06/2022,17:46:15,0.266,1.0,16.364,0.009
14/06/2022,17:48:15,0.258,1.0,16.373,0.009
14/06/2022,17:50:15,0.246,1.0,16.381,0.008
14/06/2022,17:52:15,0.239,1.0,16.389,0.008
14/06/2022,17:54:15,0.232,1.0,16.397,0.008
14/06/2022,17:56:16,0.223,1.0,16.405,0.008
14/06/2022,17:58:24,0.214,0.0,16.412,0.007
14/06/2022,18:00:16,0.207,0.0,16.419,0.007
14/06/2022,18:02:15,0.200,0.0,16.426,0.007
14/06/2022,18:04:15,0.193,0.0,16.432,0.006
14/06/2022,18:06:15,0.186,0.0,16.438,0.006
14/06/2022,18:08:24,0.179,0.0,16.445,0.007
14/06/2022,18:10:16,0.172,0.0,16.45,0.005
14/06/2022,18:12:16,0.165,0.0,16.456,0.006
14/06/2022,18:14:16,0.159,0.0,16.461,0.005
14/06/2022,18:16:17,0.152,0.0,16.467,0.006
14/06/2022,18:18:16,0.145,0.0,16.472,0.005
14/06/2022,18:20:15,0.140,0.0,16.476,0.004
14/06/2022,18:22:16,0.135,0.0,16.481,0.005
14/06/2022,18:24:16,0.130,0.0,16.485,0.004
14/06/2022,18:26:15,0.124,0.0,16.489,0.004
14/06/2022,18:28:16,0.119,0.0,16.494,0.005
14/06/2022,18:30:15,0.114,0.0,16.497,0.003
14/06/2022,18:32:15,0.109,0.0,16.501,0.004
14/06/2022,18:34:24,0.104,0.0,16.505,0.004
14/06/2022,18:36:15,0.100,0.0,16.508,0.003
14/06/2022,18:38:15,0.096,0.0,16.511,0.003
14/06/2022,18:40:15,0.091,0.0,16.514,0.003
14/06/2022,18:42:15,0.087,0.0,16.517,0.003
14/06/2022,18:44:16,0.084,0.0,16.52,0.003
14/06/2022,18:46:15,0.079,0.0,16.523,0.003
14/06/2022,18:48:16,0.076,0.0,16.526,0.003
14/06/2022,18:50:16,0.072,0.0,16.528,0.002
14/06/2022,18:52:16,0.069,0.0,16.53,0.002
14/06/2022,18:54:16,0.065,0.0,16.533,0.003
14/06/2022,18:56:15,0.062,0.0,16.535,0.002
14/06/2022,18:58:16,0.058,0.0,16.537,0.002
14/06/2022,19:00:16,0.056,0.0,16.539,0.002
14/06/2022,19:02:16,0.053,0.0,16.54,0.001
14/06/2022,19:04:15,0.050,0.0,16.542,0.002
14/06/2022,19:06:15,0.046,0.0,16.544,0.002
14/06/2022,19:08:15,0.046,0.0,16.545,0.001
14/06/2022,19:10:15,0.042,0.0,16.547,0.002
14/06/2022,19:12:24,0.040,0.0,16.548,0.001
14/06/2022,19:14:16,0.037,0.0,16.549,0.001
14/06/2022,19:16:16,0.035,0.0,16.551,0.002
14/06/2022,19:18:15,0.033,0.0,16.552,0.001
14/06/2022,19:20:15,0.031,0.0,16.553,0.001
14/06/2022,19:22:16,0.029,0.0,16.554,0.001
14/06/2022,19:24:16,0.027,0.0,16.555,0.001
14/06/2022,19:26:15,0.025,0.0,16.556,0.001